[[{"header":{"parameterUnit":"m.s-1","parameterCategory":1,"la1":30.2991,"la2":30.254,"lo1":-89.0895,"lo2":-89.0444,"dx":0.0017,"dy":0.0017,"nx":28,"ny":28,"refTime":"2022-12-02T09:00:00:Z","depth":0,"parameterNumber":2,"parameterNumberName":"U-component_of_WINDS"},"data":[0,0,0,0,0,0,0,0,0,0,0,0,0,0,0,0,0,0,0,0,0,0,0,0,0,0,0,0,0,0,0,0,0,0,0,0,0,0,0,0,0,0,0,0,0,0,0,0,0,0,0,0,0,0,0,0,0,0,-3.9436,-3.9436,0,-3.9506,-3.9507,-3.9508,-3.9381,-3.9377,-3.9373,-3.9369,-3.9443,-3.9448,-3.9454,0,0,0,0,0,0,0,0,0,0,0,0,0,-3.9192,-3.9197,-3.9435,-3.9436,-3.9437,-3.9506,-3.9507,-3.9508,-3.9382,-3.9377,-3.9372,-3.9367,-3.9441,-3.9448,-3.9455,0,0,0,0,0,0,0,0,0,0,0,0,0,-3.9284,-3.9199,-3.9435,-3.9383,-3.9379,-3.9506,-3.9507,-3.9508,-3.9383,-3.9377,-3.9371,-3.9365,-3.9438,-3.9447,-3.9456,-3.9638,0,0,-3.9483,-3.9487,0,0,0,0,0,0,0,0,-3.9279,-3.9293,-3.939,-3.9387,-3.9382,-3.9428,-3.9448,-3.9552,-3.9385,-3.9382,-3.9369,-3.9362,-3.9443,-3.9451,-3.9479,-3.9641,-3.9645,-3.9484,-3.9489,-3.9493,-3.9495,0,0,0,0,0,0,0,-3.9272,-3.9289,-3.9463,-3.9391,-3.9387,-3.9356,-3.9362,-3.9467,-3.9447,-3.9381,-3.9372,-3.9382,-3.944,-3.947,-3.9479,-3.9646,-3.9484,-3.9491,-3.9497,-3.95,-3.996,-3.9967,0,0,0,0,0,0,-3.9272,-3.9285,-3.9461,-3.9465,-3.9314,-3.9365,-3.9372,-3.942,-3.9446,-3.9444,-3.9388,-3.9376,-3.9458,-3.9469,-3.9482,-3.9695,-3.9493,-3.9501,-3.9506,-3.9953,-3.9962,-3.9969,0,0,0,0,0,0,-3.9268,-3.9289,-3.9458,-3.9373,-3.9392,-3.9376,-3.9431,-3.9425,-3.9455,-3.9451,-3.9446,-3.9422,-3.9454,-3.9469,-3.96,-3.9696,-3.9505,-3.9513,-3.9945,-3.9956,-3.9965,-4.0126,0,0,0,0,0,0,-3.9261,-3.9288,-3.9358,-3.9375,-3.9397,-3.9576,-3.9437,-3.9431,-3.947,-3.9456,-3.9482,-3.948,-3.945,-3.9587,-3.9609,-3.9705,-3.952,-3.9936,-3.995,-3.9962,-4.0112,-4.014,-4.0165,0,0,0,0,0,-3.9253,-3.94,-3.9362,-3.9384,-3.9483,-3.9582,-3.9594,-3.9556,-3.9479,-3.9548,-3.9545,-3.9479,-3.9682,-3.9602,-3.9625,-3.9725,-3.993,-3.9946,-3.9961,-4.01,-4.0135,-4.0164,0,0,0,0,0,0,-3.9395,-3.9402,-3.9359,-3.9516,-3.9549,-3.956,-3.9646,-3.9594,-3.965,-3.9634,-3.9585,-3.9592,-3.9732,-3.9742,-3.9651,-3.9902,-3.9793,-3.9814,-3.9891,-3.9924,-3.995,-3.9945,-3.9528,0,0,0,0,0,-3.9445,-3.9524,-3.9526,-3.9664,-3.9683,-3.9662,-3.9704,-3.9672,-3.9704,-3.9717,-3.9724,-3.9758,-3.9829,-3.9877,-3.9942,-4.0113,-4.0116,-4.0193,-4.022,-4.0241,-4.026,-4.035,-4.0384,-4.002,-4.002,-4.002,0,0,-3.9548,-3.9562,-3.9615,-3.9693,-3.9715,-3.9798,-3.9675,-3.9768,-3.983,-3.9731,-3.9855,-3.9861,-3.9896,-4.0047,-4.0114,-4.0059,-4.0361,-4.0261,-4.0279,-4.0285,-4.0369,-4.0404,-4.0434,-4.0031,-4.0029,-4.0027,0,0,-3.9779,-3.9798,-3.9914,-3.9939,-3.9973,-3.9958,-3.9986,-4.0005,-4.0005,-4.0128,-4.0056,-4.0128,-4.0252,-4.0279,-4.0309,-4.055,-4.0492,-4.0573,-4.0711,-4.0799,-4.0828,-4.0853,-4.0938,-4.0969,-4.0592,-4.0592,-4.0592,0,-3.9903,-4.0026,-3.9981,-4.008,-4.0116,-4.0031,-4.0149,-4.0174,-4.0229,-4.0256,-4.0194,-4.0347,-4.0364,-4.052,-4.0579,-4.0606,-4.0637,-4.057,-4.0827,-4.0852,-4.0875,-4.0955,-4.0988,-4.0602,-4.06,-4.0599,-4.0599,0,-4.0176,-4.0262,-4.0353,-4.0407,-4.0453,-4.0562,-4.0534,-4.0586,-4.055,-4.0541,-4.0667,-4.0685,-4.0752,-4.0787,-4.0753,-4.0938,-4.0903,-4.0835,-4.0725,-4.092,-4.0995,-4.1025,-4.0615,-4.0612,-4.0609,-4.0607,0,0,-4.0499,-4.0526,-4.056,-4.0583,-4.0614,-4.068,-4.0784,-4.0849,-4.0895,-4.0935,-4.102,-4.1127,-4.1064,-4.1099,-4.1067,-4.1144,-4.1333,-4.1067,-4.1067,-4.1115,-4.1537,-4.1587,-4.1623,-4.1294,-4.13,-4.1304,-4.1533,0,-4.0727,-4.0906,-4.0869,-4.1044,-4.1122,-4.1042,-4.1132,-4.1161,-4.1156,-4.1222,-4.1216,-4.1292,-4.1204,-4.1224,-4.1297,-4.1294,-4.1417,-4.1277,-4.1373,-4.1377,-4.1366,-4.1663,-4.1716,-4.1931,-4.1563,-4.1568,-4.1571,0,-4.1018,-4.1068,-4.1251,-4.1269,-4.13,-4.1382,-4.1438,-4.1503,-4.1534,-4.1524,-4.1563,-4.1516,-4.1618,-4.1507,-4.1648,-4.1554,-4.1591,-4.1595,-4.1603,-4.1609,-4.1485,-4.1677,-4.1999,-4.2031,-4.1617,-4.1613,-4.161,0,-4.1234,-4.1347,-4.1471,-4.1493,-4.1517,-4.1577,-4.159,-4.1614,-4.1655,-4.1705,-4.1731,-4.1792,-4.1825,-4.1873,-4.1844,-4.1766,-4.199,-4.1876,-4.1984,-4.1985,-4.2034,-4.2032,-4.2367,-4.206,-4.206,-4.2059,-4.2058,0,-4.1492,-4.1607,-4.1568,-4.1644,-4.177,-4.1727,-4.1853,-4.1856,-4.1879,-4.1954,-4.1888,-4.196,-4.1917,-4.1986,-4.1964,-4.2083,-4.2099,-4.2094,-4.2087,-4.21,-4.21,-4.2122,-4.2106,-4.2068,-4.2066,-4.2064,-4.2063,0,-4.1754,-4.1733,-4.1862,-4.1874,-4.188,-4.1972,-4.1982,-4.2053,-4.2043,-4.2139,-4.2159,-4.2143,-4.222,-4.2196,-4.2279,-4.2264,-4.2415,-4.2389,-4.2405,-4.2398,-4.2507,-4.2497,-4.2868,-4.2914,-4.2579,-4.2582,-4.2585,0,-4.192,-4.2007,-4.2028,-4.2073,-4.2091,-4.2165,-4.2206,-4.2167,-4.2212,-4.2254,-4.232,-4.2391,-4.2446,-4.2573,-4.2569,-4.2632,-4.2606,-4.2732,-4.2615,-4.2625,-4.2607,-4.2602,-4.261,-4.2755,-4.2759,-4.2762,-4.2765,0,-4.2217,-4.2202,-4.2264,-4.2323,-4.2374,-4.2418,-4.2457,-4.2498,-4.2461,-4.2515,-4.2593,-4.2636,-4.272,-4.2792,-4.2849,-4.2862,-4.2808,-4.2802,-4.283,-4.2843,-4.2848,-4.2846,-4.2467,-4.2793,-4.279,-4.2788,-4.2787,-4.2785,-4.2435,-4.2508,-4.2534,-4.2605,-4.2629,-4.2667,-4.2733,-4.2731,-4.2795,-4.2861,-4.2834,-4.2923,-4.2951,-4.3022,-4.3043,-4.3112,-4.3064,-4.3105,-4.3115,-4.3126,-4.3139,-4.2838,-4.3122,-4.3122,-4.3121,-4.312,-4.312,0,-4.2728,-4.274,-4.2806,-4.2861,-4.2917,-4.2861,-4.29,-4.2951,-4.303,-4.3061,-4.3116,-4.3205,-4.3274,-4.3275,-4.3339,-4.3394,-4.3371,-4.3412,-4.3407,-4.3411,-4.3179,-4.3148,-4.343,-4.343,-4.343,-4.343,-4.343,-4.343,-4.2886,-4.3005,-4.2994,-4.3124,-4.3136,-4.3222,-4.325,-4.3284,-4.3307,-4.341,-4.3466,-4.3467,-4.3485,-4.355,-4.361,-4.3609,-4.3635,-4.3686,-4.3675,-4.3458,-4.3427,-4.3398,-4.3368,-4.3692,-4.3693,-4.3901,-4.3903,-4.3904]},{"header":{"parameterUnit":"m.s-1","parameterCategory":1,"la1":30.2991,"la2":30.254,"lo1":-89.0895,"lo2":-89.0444,"dx":0.0017,"dy":0.0017,"nx":28,"ny":28,"refTime":"2022-12-02T09:00:00:Z","depth":0,"parameterNumber":3,"parameterNumberName":"V-component_of_WINDS"},"data":[0,0,0,0,0,0,0,0,0,0,0,0,0,0,0,0,0,0,0,0,0,0,0,0,0,0,0,0,0,0,0,0,0,0,0,0,0,0,0,0,0,0,0,0,0,0,0,0,0,0,0,0,0,0,0,0,0,0,-1.6577,-1.6576,0,-1.6513,-1.6513,-1.6512,-1.6486,-1.6486,-1.6486,-1.6486,-1.6421,-1.6419,-1.6417,0,0,0,0,0,0,0,0,0,0,0,0,0,-1.6671,-1.667,-1.6577,-1.6576,-1.6575,-1.6514,-1.6513,-1.6512,-1.6486,-1.6486,-1.6486,-1.6486,-1.6421,-1.6419,-1.6417,0,0,0,0,0,0,0,0,0,0,0,0,0,-1.6621,-1.6669,-1.6577,-1.6555,-1.6552,-1.6514,-1.6513,-1.6512,-1.6486,-1.6486,-1.6486,-1.6487,-1.6422,-1.6419,-1.6416,-1.6395,0,0,-1.6408,-1.6406,0,0,0,0,0,0,0,0,-1.6624,-1.6618,-1.6559,-1.6556,-1.6553,-1.6508,-1.6522,-1.6472,-1.6486,-1.6511,-1.6486,-1.6487,-1.6449,-1.6444,-1.6432,-1.6392,-1.6389,-1.6407,-1.6406,-1.6405,-1.6404,0,0,0,0,0,0,0,-1.6628,-1.662,-1.6552,-1.6558,-1.6555,-1.6547,-1.654,-1.6512,-1.648,-1.6509,-1.6507,-1.65,-1.6448,-1.6435,-1.643,-1.6388,-1.6408,-1.6405,-1.6403,-1.6402,-1.6321,-1.632,0,0,0,0,0,0,-1.6635,-1.6623,-1.6554,-1.655,-1.659,-1.6545,-1.6537,-1.6522,-1.648,-1.6474,-1.65,-1.6499,-1.6439,-1.6433,-1.6428,-1.6396,-1.6405,-1.6402,-1.64,-1.6321,-1.6321,-1.632,0,0,0,0,0,0,-1.6637,-1.6629,-1.6556,-1.6586,-1.6576,-1.6543,-1.6526,-1.6521,-1.6508,-1.6473,-1.6467,-1.6492,-1.6439,-1.6432,-1.6402,-1.6393,-1.6401,-1.6398,-1.6322,-1.6321,-1.632,-1.6335,0,0,0,0,0,0,-1.664,-1.663,-1.6623,-1.6586,-1.6575,-1.6533,-1.6526,-1.6519,-1.6503,-1.6501,-1.6465,-1.6459,-1.6439,-1.6406,-1.6399,-1.639,-1.6396,-1.6322,-1.6322,-1.6321,-1.6335,-1.6334,-1.6334,0,0,0,0,0,-1.6643,-1.663,-1.6623,-1.6614,-1.6565,-1.6533,-1.6526,-1.6504,-1.6503,-1.6494,-1.6471,-1.646,-1.6396,-1.6403,-1.6395,-1.6385,-1.6323,-1.6322,-1.6321,-1.6335,-1.6335,-1.6334,0,0,0,0,0,0,-1.6668,-1.6625,-1.6616,-1.6591,-1.6565,-1.6528,-1.6517,-1.6505,-1.6479,-1.6479,-1.6452,-1.6443,-1.6415,-1.6397,-1.6407,-1.6359,-1.6358,-1.6355,-1.6372,-1.6371,-1.6371,-1.6375,-1.6393,0,0,0,0,0,-1.667,-1.6648,-1.6612,-1.6593,-1.658,-1.6551,-1.6536,-1.6521,-1.6493,-1.6482,-1.6457,-1.643,-1.6403,-1.6386,-1.636,-1.6332,-1.6321,-1.632,-1.632,-1.632,-1.6318,-1.6297,-1.6294,-1.6317,-1.6317,-1.6317,0,0,-1.6675,-1.6649,-1.6637,-1.6597,-1.6575,-1.6551,-1.6542,-1.6518,-1.6499,-1.6479,-1.6448,-1.6428,-1.6396,-1.6366,-1.6351,-1.635,-1.6309,-1.6319,-1.6319,-1.6316,-1.6295,-1.6293,-1.6291,-1.6316,-1.6316,-1.6316,0,0,-1.6671,-1.665,-1.663,-1.6608,-1.6575,-1.6554,-1.6549,-1.6513,-1.6499,-1.6468,-1.645,-1.6427,-1.6383,-1.6359,-1.6341,-1.6323,-1.631,-1.6315,-1.6313,-1.6293,-1.6291,-1.629,-1.6279,-1.6277,-1.6313,-1.6313,-1.6313,0,-1.6681,-1.6645,-1.6621,-1.6597,-1.6578,-1.6557,-1.6535,-1.6514,-1.6474,-1.6461,-1.646,-1.6401,-1.6378,-1.6339,-1.6334,-1.6322,-1.6313,-1.6319,-1.6294,-1.6292,-1.629,-1.628,-1.6276,-1.6313,-1.6313,-1.6313,-1.6313,0,-1.6657,-1.6632,-1.6619,-1.658,-1.656,-1.6537,-1.6508,-1.649,-1.6475,-1.6454,-1.642,-1.6391,-1.6357,-1.6347,-1.6333,-1.6305,-1.6304,-1.6299,-1.6298,-1.6288,-1.6278,-1.6275,-1.6314,-1.6314,-1.6314,-1.6314,0,0,-1.6669,-1.6613,-1.6609,-1.6589,-1.6549,-1.6528,-1.6502,-1.6468,-1.6451,-1.6424,-1.6399,-1.636,-1.6353,-1.6333,-1.6316,-1.6298,-1.6281,-1.6294,-1.6293,-1.629,-1.6243,-1.6245,-1.6242,-1.6272,-1.6272,-1.6271,-1.6244,0,-1.6657,-1.6611,-1.6587,-1.655,-1.6524,-1.6501,-1.6478,-1.645,-1.6428,-1.6402,-1.6378,-1.6349,-1.6345,-1.6331,-1.6313,-1.6287,-1.627,-1.6289,-1.6247,-1.6246,-1.6254,-1.6237,-1.6241,-1.6218,-1.6241,-1.624,-1.624,0,-1.6638,-1.6609,-1.6569,-1.6528,-1.6516,-1.6496,-1.646,-1.6436,-1.6402,-1.6387,-1.6362,-1.6344,-1.6313,-1.6314,-1.6269,-1.6282,-1.6263,-1.6247,-1.6245,-1.6239,-1.6241,-1.6228,-1.621,-1.6205,-1.6234,-1.6234,-1.6235,0,-1.6647,-1.6598,-1.6566,-1.655,-1.6502,-1.6487,-1.6466,-1.6432,-1.6412,-1.638,-1.6365,-1.633,-1.6311,-1.6283,-1.6255,-1.6259,-1.6211,-1.6211,-1.6195,-1.6196,-1.6186,-1.6186,-1.6162,-1.6177,-1.6177,-1.6177,-1.6177,0,-1.6636,-1.6612,-1.6569,-1.6549,-1.652,-1.6491,-1.6462,-1.6439,-1.6408,-1.6382,-1.6361,-1.6336,-1.6302,-1.6272,-1.625,-1.6213,-1.6206,-1.6191,-1.6185,-1.6191,-1.6193,-1.6177,-1.6177,-1.6176,-1.6177,-1.6177,-1.6177,0,-1.6641,-1.6611,-1.6575,-1.6531,-1.6519,-1.6499,-1.646,-1.6439,-1.6415,-1.6382,-1.6372,-1.6335,-1.6298,-1.6267,-1.622,-1.6205,-1.6165,-1.616,-1.6177,-1.6173,-1.6158,-1.6159,-1.6121,-1.6113,-1.6137,-1.6137,-1.6136,0,-1.6635,-1.6615,-1.6568,-1.6549,-1.6528,-1.6497,-1.6475,-1.6444,-1.6422,-1.6378,-1.6361,-1.6323,-1.6291,-1.6232,-1.62,-1.6162,-1.6153,-1.6142,-1.6148,-1.6153,-1.6149,-1.615,-1.6145,-1.6142,-1.6142,-1.6142,-1.6142,0,-1.6626,-1.6611,-1.6581,-1.6543,-1.6517,-1.6487,-1.6455,-1.644,-1.6403,-1.6378,-1.634,-1.6315,-1.6264,-1.6225,-1.6182,-1.6159,-1.6142,-1.614,-1.6134,-1.614,-1.6149,-1.614,-1.6173,-1.6141,-1.6141,-1.6141,-1.6141,-1.6141,-1.6624,-1.6603,-1.6566,-1.6531,-1.6503,-1.6473,-1.6449,-1.6421,-1.6389,-1.6345,-1.6329,-1.6288,-1.625,-1.6191,-1.6166,-1.6133,-1.6131,-1.6123,-1.612,-1.6118,-1.6117,-1.6156,-1.6125,-1.6125,-1.6125,-1.6125,-1.6125,0,-1.6611,-1.6585,-1.6553,-1.6509,-1.648,-1.6467,-1.643,-1.6407,-1.6371,-1.6337,-1.6304,-1.6257,-1.6218,-1.6181,-1.6138,-1.6118,-1.6109,-1.6108,-1.6108,-1.6102,-1.6123,-1.6131,-1.6115,-1.6115,-1.6115,-1.6115,-1.6115,-1.6115,-1.6602,-1.6565,-1.6545,-1.6493,-1.6467,-1.6427,-1.6406,-1.6377,-1.6348,-1.6297,-1.6264,-1.624,-1.6202,-1.6156,-1.6118,-1.6108,-1.6092,-1.6092,-1.6079,-1.61,-1.6101,-1.6102,-1.6109,-1.6089,-1.6089,-1.606,-1.606,-1.606]}]]